QPF
0.00 0.00 0.00 0.00 0.00 0.00 0.00 0.00 0.00 0.00 0.00 0.00 0.00 0.00 0.00 0.00 0.00 0.00 0.00 0.00 0.00 0.00 0.00 0.00 0.00 0.01 0.01 0.00 0.00 0.00 0.00 0.01 0.02 0.04 0.05 0.06 0.07 0.07 0.05 0.04 0.06 0.05 0.06 0.07
0.00 0.00 0.00 0.00 0.00 0.00 0.00 0.00 0.00 0.00 0.00 0.00 0.00 0.00 0.00 0.00 0.00 0.00 0.00 0.00 0.00 0.00 0.00 0.00 0.00 0.01 0.01 0.01 0.01 0.01 0.01 0.01 0.01 0.03 0.05 0.07 0.08 0.08 0.08 0.05 0.05 0.07 0.06 0.07
0.00 0.00 0.00 0.00 0.00 0.00 0.01 0.00 0.00 0.00 0.00 0.00 0.00 0.00 0.00 0.00 0.00 0.00 0.00 0.00 0.00 0.00 0.00 0.00 0.00 0.01 0.01 0.01 0.02 0.03 0.02 0.01 0.01 0.02 0.05 0.09 0.09 0.09 0.10 0.07 0.05 0.07 0.07 0.07
0.00 0.00 0.00 0.00 0.00 0.00 0.01 0.00 0.00 0.00 0.01 0.00 0.00 0.00 0.00 0.00 0.00 0.00 0.00 0.00 0.00 0.00 0.00 0.00 0.00 0.01 0.02 0.03 0.04 0.06 0.04 0.03 0.03 0.03 0.05 0.09 0.10 0.08 0.08 0.07 0.05 0.06 0.08 0.08
0.01 0.00 0.00 0.00 0.00 0.01 0.01 0.00 0.00 0.00 0.00 0.01 0.00 0.00 0.00 0.00 0.00 0.00 0.00 0.00 0.00 0.00 0.00 0.00 0.00 0.00 0.02 0.04 0.06 0.08 0.07 0.08 0.07 0.05 0.06 0.09 0.09 0.08 0.08 0.07 0.06 0.06 0.07 0.08
0.01 0.01 0.01 0.00 0.00 0.00 0.01 0.00 0.00 0.00 0.01 0.01 0.00 0.00 0.00 0.00 0.00 0.00 0.00 0.00 0.00 0.00 0.00 0.00 0.00 0.00 0.02 0.05 0.04 0.06 0.06 0.09 0.11 0.11 0.11 0.11 0.11 0.09 0.08 0.07 0.08 0.07 0.08 0.09
0.01 0.01 0.01 0.01 0.01 0.01 0.01 0.01 0.02 0.02 0.01 0.00 0.00 0.00 0.00 0.00 0.00 0.00 0.00 0.00 0.00 0.00 0.01 0.00 0.00 0.00 0.02 0.06 0.05 0.04 0.04 0.09 0.11 0.11 0.11 0.13 0.16 0.16 0.14 0.11 0.09 0.09 0.09 0.10
0.02 0.01 0.01 0.01 0.01 0.01 0.01 0.01 0.01 0.01 0.01 0.00 0.00 0.00 0.00 0.00 0.00 0.00 0.00 0.00 0.00 0.00 0.00 0.00 0.00 0.00 0.02 0.04 0.05 0.07 0.05 0.06 0.06 0.08 0.10 0.12 0.17 0.22 0.20 0.16 0.11 0.09 0.10 0.11
0.01 0.01 0.00 0.00 0.00 0.00 0.01 0.00 0.00 0.00 0.00 0.00 0.00 0.00 0.00 0.00 0.00 0.00 0.00 0.00 0.00 0.00 0.00 0.00 0.00 0.01 0.03 0.03 0.02 0.04 0.04 0.05 0.04 0.05 0.07 0.09 0.12 0.17 0.19 0.20 0.15 0.11 0.12 0.12
0.00 0.01 0.00 0.00 0.00 0.00 0.00 0.00 0.00 0.00 0.01 0.00 0.00 0.00 0.00 0.00 0.00 0.00 0.00 0.00 0.00 0.00 0.00 0.00 0.00 0.01 0.03 0.04 0.04 0.03 0.04 0.04 0.04 0.05 0.06 0.08 0.10 0.11 0.15 0.20 0.24 0.18 0.15 0.14
0.01 0.01 0.01 0.00 0.00 0.00 0.00 0.00 0.00 0.00 0.00 0.00 0.00 0.00 0.00 0.00 0.00 0.00 0.00 0.00 0.00 0.00 0.00 0.00 0.00 0.00 0.02 0.03 0.03 0.04 0.04 0.03 0.03 0.04 0.05 0.07 0.10 0.13 0.12 0.15 0.18 0.19 0.17 0.15
0.02 0.03 0.02 0.00 0.00 0.00 0.00 0.00 0.00 0.01 0.00 0.00 0.00 0.00 0.00 0.00 0.00 0.00 0.00 0.00 0.00 0.00 0.00 0.00 0.00 0.00 0.01 0.01 0.02 0.02 0.03 0.03 0.03 0.04 0.05 0.06 0.08 0.12 0.11 0.12 0.13 0.14 0.15 0.12
0.03 0.04 0.03 0.02 0.01 0.01 0.01 0.00 0.00 0.00 0.01 0.00 0.00 0.00 0.00 0.00 0.00 0.00 0.00 0.00 0.00 0.00 0.00 0.00 0.00 0.00 0.00 0.01 0.01 0.02 0.02 0.02 0.03 0.05 0.06 0.06 0.08 0.10 0.09 0.09 0.10 0.12 0.14 0.14
0.05 0.05 0.03 0.02 0.02 0.02 0.01 0.01 0.00 0.01 0.01 0.00 0.00 0.00 0.00 0.00 0.00 0.00 0.00 0.00 0.00 0.00 0.00 0.00 0.00 0.00 0.00 0.00 0.01 0.01 0.01 0.02 0.03 0.05 0.06 0.06 0.08 0.09 0.09 0.09 0.10 0.10 0.10 0.11
0.06 0.06 0.02 0.01 0.01 0.01 0.01 0.01 0.01 0.01 0.01 0.00 0.00 0.00 0.00 0.00 0.00 0.00 0.00 0.00 0.00 0.01 0.00 0.00 0.00 0.01 0.01 0.01 0.01 0.01 0.01 0.02 0.03 0.04 0.05 0.06 0.07 0.09 0.10 0.10 0.10 0.09 0.08 0.09
0.05 0.05 0.03 0.01 0.01 0.01 0.01 0.01 0.00 0.01 0.01 0.01 0.00 0.00 0.00 0.00 0.00 0.00 0.00 0.00 0.00 0.00 0.01 0.00 0.00 0.01 0.01 0.01 0.01 0.01 0.01 0.01 0.02 0.02 0.03 0.04 0.05 0.07 0.08 0.09 0.10 0.10 0.10 0.08
0.05 0.05 0.05 0.03 0.01 0.02 0.02 0.00 0.00 0.00 0.00 0.01 0.01 0.00 0.00 0.00 0.00 0.00 0.00 0.00 0.00 0.00 0.01 0.01 0.01 0.02 0.02 0.01 0.01 0.01 0.01 0.01 0.01 0.02 0.03 0.04 0.05 0.06 0.06 0.06 0.07 0.07 0.08 0.09
0.04 0.04 0.06 0.04 0.03 0.03 0.01 0.00 0.00 0.00 0.00 0.01 0.01 0.02 0.01 0.01 0.01 0.00 0.00 0.00 0.00 0.00 0.00 0.01 0.02 0.03 0.03 0.02 0.02 0.01 0.01 0.01 0.01 0.02 0.03 0.04 0.04 0.04 0.04 0.05 0.07 0.06 0.05 0.06
0.03 0.05 0.08 0.06 0.04 0.01 0.00 0.00 0.00 0.00 0.00 0.00 0.00 0.00 0.00 0.01 0.00 0.00 0.00 0.00 0.00 0.00 0.00 0.01 0.02 0.04 0.03 0.02 0.02 0.03 0.02 0.01 0.01 0.02 0.04 0.04 0.05 0.04 0.04 0.05 0.06 0.06 0.05 0.04
0.03 0.06 0.09 0.08 0.05 0.02 0.00 0.00 0.00 0.00 0.00 0.00 0.00 0.00 0.00 0.01 0.00 0.00 0.00 0.00 0.00 0.00 0.00 0.01 0.01 0.03 0.04 0.04 0.04 0.04 0.04 0.04 0.03 0.03 0.04 0.04 0.04 0.05 0.04 0.06 0.07 0.07 0.06 0.05
0.04 0.07 0.07 0.04 0.04 0.01 0.00 0.00 0.00 0.01 0.01 0.01 0.01 0.00 0.00 0.00 0.00 0.00 0.00 0.00 0.00 0.00 0.00 0.00 0.01 0.02 0.03 0.05 0.05 0.04 0.04 0.03 0.04 0.04 0.04 0.04 0.04 0.04 0.04 0.05 0.07 0.07 0.06 0.05
0.01 0.02 0.02 0.02 0.04 0.02 0.00 0.00 0.00 0.01 0.00 0.00 0.00 0.00 0.00 0.00 0.00 0.00 0.00 0.00 0.00 0.00 0.00 0.00 0.01 0.02 0.03 0.04 0.04 0.04 0.04 0.04 0.04 0.05 0.04 0.04 0.04 0.04 0.04 0.06 0.07 0.06 0.06 0.06
0.01 0.01 0.01 0.01 0.01 0.00 0.00 0.00 0.00 0.00 0.00 0.00 0.00 0.00 0.00 0.00 0.00 0.00 0.00 0.00 0.00 0.00 0.00 0.00 0.01 0.02 0.02 0.03 0.03 0.04 0.04 0.04 0.06 0.05 0.05 0.04 0.04 0.05 0.07 0.08 0.07 0.07 0.08 0.08
0.02 0.01 0.01 0.01 0.00 0.00 0.00 0.00 0.00 0.00 0.00 0.00 0.00 0.00 0.00 0.00 0.00 0.00 0.00 0.00 0.00 0.00 0.00 0.00 0.00 0.02 0.03 0.04 0.04 0.04 0.05 0.06 0.08 0.06 0.05 0.04 0.04 0.05 0.06 0.07 0.07 0.08 0.10 0.09
0.01 0.01 0.02 0.02 0.01 0.00 0.00 0.00 0.00 0.00 0.00 0.00 0.00 0.00 0.00 0.00 0.00 0.00 0.00 0.00 0.00 0.00 0.00 0.00 0.01 0.02 0.03 0.04 0.04 0.04 0.05 0.06 0.07 0.08 0.07 0.05 0.05 0.06 0.06 0.07 0.08 0.09 0.09 0.09
0.00 0.01 0.02 0.02 0.01 0.01 0.01 0.00 0.00 0.00 0.00 0.00 0.00 0.00 0.00 0.00 0.00 0.00 0.00 0.00 0.00 0.00 0.00 0.00 0.00 0.01 0.02 0.03 0.04 0.04 0.04 0.05 0.06 0.07 0.08 0.06 0.06 0.07 0.07 0.07 0.08 0.10 0.10 0.09
MSLP
1013.22 1013.56 1013.94 1014.32 1014.66 1014.92 1015.07 1015.09 1014.97 1014.73 1014.41 1014.04 1013.69 1013.38 1013.16 1013.04 1013.02 1013.07 1013.17 1013.28 1013.37 1013.44 1013.46 1013.46 1013.43 1013.39 1013.35 1013.32 1013.28 1013.21 1013.10 1012.94 1012.71 1012.41 1012.07 1011.69 1011.30 1010.91 1010.54 1010.18 1009.83 1009.48 1009.13 1008.77
1013.73 1014.15 1014.59 1015.01 1015.37 1015.63 1015.76 1015.74 1015.57 1015.27 1014.88 1014.45 1014.04 1013.68 1013.41 1013.25 1013.20 1013.22 1013.30 1013.38 1013.45 1013.48 1013.47 1013.41 1013.33 1013.23 1013.15 1013.07 1013.00 1012.91 1012.80 1012.63 1012.40 1012.09 1011.72 1011.30 1010.84 1010.37 1009.91 1009.46 1009.02 1008.60 1008.20 1007.82
1014.27 1014.73 1015.21 1015.66 1016.05 1016.32 1016.45 1016.42 1016.22 1015.88 1015.44 1014.95 1014.46 1014.03 1013.69 1013.47 1013.37 1013.36 1013.41 1013.48 1013.54 1013.56 1013.51 1013.42 1013.28 1013.12 1012.96 1012.81 1012.67 1012.53 1012.38 1012.18 1011.93 1011.61 1011.22 1010.77 1010.26 1009.73 1009.19 1008.65 1008.14 1007.66 1007.21 1006.80
1014.83 1015.30 1015.78 1016.25 1016.65 1016.94 1017.09 1017.07 1016.87 1016.51 1016.02 1015.46 1014.88 1014.34 1013.90 1013.59 1013.42 1013.37 1013.40 1013.47 1013.54 1013.57 1013.52 1013.40 1013.21 1012.98 1012.73 1012.48 1012.24 1012.01 1011.78 1011.54 1011.26 1010.93 1010.53 1010.06 1009.54 1008.97 1008.38 1007.78 1007.21 1006.68 1006.19 1005.76
1015.38 1015.82 1016.29 1016.75 1017.16 1017.49 1017.67 1017.68 1017.50 1017.12 1016.58 1015.94 1015.24 1014.58 1014.00 1013.57 1013.30 1013.19 1013.20 1013.29 1013.38 1013.44 1013.42 1013.30 1013.08 1012.78 1012.42 1012.05 1011.68 1011.33 1011.01 1010.70 1010.38 1010.04 1009.64 1009.18 1008.66 1008.09 1007.48 1006.86 1006.25 1005.68 1005.17 1004.72
1015.89 1016.30 1016.74 1017.19 1017.61 1017.97 1018.21 1018.27 1018.11 1017.73 1017.14 1016.40 1015.57 1014.75 1014.01 1013.43 1013.04 1012.84 1012.82 1012.92 1013.06 1013.17 1013.19 1013.09 1012.85 1012.48 1012.03 1011.53 1011.02 1010.53 1010.10 1009.70 1009.34 1008.97 1008.59 1008.16 1007.66 1007.11 1006.50 1005.87 1005.24 1004.64 1004.10 1003.64
1016.37 1016.73 1017.13 1017.58 1018.03 1018.44 1018.74 1018.87 1018.75 1018.37 1017.74 1016.90 1015.92 1014.92 1013.99 1013.23 1012.69 1012.39 1012.32 1012.42 1012.59 1012.76 1012.84 1012.77 1012.52 1012.11 1011.56 1010.93 1010.28 1009.66 1009.10 1008.62 1008.20 1007.82 1007.44 1007.03 1006.57 1006.03 1005.43 1004.79 1004.14 1003.51 1002.94 1002.45
1016.80 1017.12 1017.51 1017.96 1018.45 1018.93 1019.32 1019.52 1019.46 1019.10 1018.43 1017.49 1016.37 1015.18 1014.04 1013.08 1012.37 1011.95 1011.80 1011.88 1012.07 1012.28 1012.41 1012.37 1012.12 1011.67 1011.05 1010.31 1009.53 1008.78 1008.11 1007.53 1007.06 1006.65 1006.26 1005.86 1005.40 1004.87 1004.26 1003.59 1002.89 1002.21 1001.60 1001.07
1017.19 1017.49 1017.88 1018.36 1018.91 1019.47 1019.95 1020.25 1020.25 1019.91 1019.22 1018.19 1016.94 1015.57 1014.23 1013.07 1012.18 1011.61 1011.37 1011.39 1011.58 1011.81 1011.96 1011.94 1011.70 1011.21 1010.53 1009.70 1008.82 1007.96 1007.19 1006.53 1005.98 1005.53 1005.11 1004.69 1004.20 1003.63 1002.96 1002.22 1001.45 1000.69 1000.00 999.43
1017.56 1017.86 1018.26 1018.78 1019.39 1020.04 1020.62 1021.00 1021.08 1020.78 1020.07 1018.98 1017.61 1016.09 1014.58 1013.23 1012.17 1011.46 1011.10 1011.05 1011.19 1011.40 1011.55 1011.53 1011.27 1010.76 1010.03 1009.14 1008.18 1007.24 1006.38 1005.65 1005.03 1004.51 1004.03 1003.54 1002.98 1002.31 1001.54 1000.68 999.78 998.91 998.13 997.50
1017.91 1018.23 1018.65 1019.21 1019.88 1020.60 1021.25 1021.71 1021.84 1021.57 1020.86 1019.74 1018.30 1016.68 1015.04 1013.55 1012.35 1011.50 1011.03 1010.87 1010.94 1011.10 1011.21 1011.16 1010.88 1010.34 1009.57 1008.63 1007.63 1006.63 1005.71 1004.90 1004.22 1003.62 1003.05 1002.44 1001.75 1000.94 1000.00 998.98 997.93 996.92 996.03 995.32
1018.25 1018.59 1019.03 1019.62 1020.32 1021.07 1021.75 1022.24 1022.40 1022.15 1021.45 1020.32 1018.86 1017.19 1015.49 1013.92 1012.63 1011.69 1011.11 1010.86 1010.84 1010.91 1010.96 1010.85 1010.51 1009.93 1009.14 1008.17 1007.14 1006.10 1005.15 1004.29 1003.53 1002.84 1002.14 1001.39 1000.54 999.54 998.41 997.20 995.97 994.81 993.80 993.03
1018.58 1018.93 1019.38 1019.95 1020.64 1021.36 1022.02 1022.49 1022.64 1022.38 1021.69 1020.58 1019.13 1017.49 1015.80 1014.24 1012.92 1011.94 1011.30 1010.96 1010.85 1010.83 1010.78 1010.58 1010.19 1009.56 1008.73 1007.75 1006.70 1005.65 1004.67 1003.77 1002.94 1002.14 1001.32 1000.41 999.37 998.17 996.84 995.43 994.03 992.73 991.62 990.78
1018.88 1019.22 1019.65 1020.17 1020.79 1021.42 1021.99 1022.37 1022.45 1022.16 1021.47 1020.40 1019.02 1017.47 1015.87 1014.39 1013.13 1012.17 1011.52 1011.14 1010.94 1010.82 1010.67 1010.38 1009.90 1009.22 1008.35 1007.36 1006.30 1005.25 1004.25 1003.31 1002.42 1001.52 1000.56 999.49 998.26 996.88 995.36 993.78 992.23 990.82 989.63 988.76
1019.12 1019.45 1019.82 1020.25 1020.73 1021.21 1021.62 1021.85 1021.82 1021.47 1020.78 1019.76 1018.50 1017.09 1015.66 1014.33 1013.21 1012.34 1011.73 1011.34 1011.09 1010.88 1010.63 1010.24 1009.67 1008.92 1008.02 1007.00 1005.95 1004.89 1003.88 1002.90 1001.94 1000.95 999.87 998.65 997.26 995.71 994.04 992.34 990.69 989.20 987.98 987.11
1019.26 1019.55 1019.84 1020.14 1020.46 1020.74 1020.94 1020.98 1020.81 1020.37 1019.67 1018.72 1017.60 1016.38 1015.17 1014.07 1013.15 1012.43 1011.91 1011.55 1011.28 1011.00 1010.66 1010.17 1009.51 1008.70 1007.75 1006.71 1005.64 1004.58 1003.55 1002.54 1001.51 1000.43 999.23 997.89 996.37 994.70 992.94 991.15 989.46 987.97 986.76 985.91
1019.24 1019.49 1019.68 1019.84 1019.96 1020.02 1020.00 1019.83 1019.50 1018.98 1018.27 1017.41 1016.45 1015.46 1014.51 1013.67 1012.98 1012.45 1012.07 1011.77 1011.50 1011.18 1010.76 1010.19 1009.46 1008.58 1007.58 1006.52 1005.43 1004.35 1003.29 1002.23 1001.14 999.97 998.67 997.22 995.61 993.87 992.05 990.25 988.58 987.12 985.97 985.17
1018.99 1019.19 1019.29 1019.30 1019.24 1019.10 1018.86 1018.51 1018.03 1017.44 1016.75 1015.99 1015.21 1014.45 1013.77 1013.21 1012.77 1012.45 1012.21 1011.99 1011.75 1011.41 1010.94 1010.30 1009.51 1008.57 1007.54 1006.45 1005.34 1004.23 1003.13 1002.01 1000.85 999.59 998.20 996.67 994.99 993.21 991.40 989.63 988.02 986.64 985.58 984.87
1018.44 1018.59 1018.60 1018.50 1018.29 1017.98 1017.58 1017.09 1016.52 1015.90 1015.25 1014.61 1014.02 1013.49 1013.08 1012.77 1012.57 1012.44 1012.34 1012.22 1012.01 1011.67 1011.17 1010.49 1009.66 1008.69 1007.63 1006.52 1005.39 1004.25 1003.09 1001.91 1000.66 999.32 997.85 996.24 994.53 992.73 990.95 989.25 987.73 986.47 985.53 984.93
1017.55 1017.64 1017.60 1017.41 1017.11 1016.69 1016.20 1015.64 1015.05 1014.45 1013.88 1013.38 1012.97 1012.67 1012.48 1012.41 1012.41 1012.44 1012.46 1012.42 1012.25 1011.92 1011.41 1010.73 1009.88 1008.91 1007.85 1006.73 1005.58 1004.41 1003.21 1001.96 1000.62 999.19 997.63 995.97 994.22 992.44 990.71 989.10 987.69 986.56 985.75 985.26
1016.29 1016.34 1016.25 1016.02 1015.68 1015.24 1014.73 1014.19 1013.64 1013.13 1012.69 1012.34 1012.11 1012.01 1012.02 1012.12 1012.28 1012.44 1012.55 1012.56 1012.42 1012.12 1011.63 1010.97 1010.15 1009.20 1008.17 1007.07 1005.92 1004.73 1003.48 1002.16 1000.74 999.22 997.59 995.87 994.10 992.34 990.67 989.16 987.88 986.88 986.20 985.82
1014.70 1014.70 1014.58 1014.36 1014.03 1013.64 1013.20 1012.75 1012.32 1011.95 1011.67 1011.49 1011.44 1011.50 1011.66 1011.90 1012.16 1012.39 1012.56 1012.61 1012.51 1012.24 1011.80 1011.18 1010.42 1009.54 1008.56 1007.50 1006.37 1005.17 1003.89 1002.51 1001.02 999.42 997.73 995.97 994.19 992.46 990.86 989.45 988.29 987.43 986.87 986.61
1012.87 1012.82 1012.69 1012.49 1012.24 1011.94 1011.64 1011.34 1011.09 1010.90 1010.80 1010.81 1010.91 1011.12 1011.39 1011.71 1012.03 1012.31 1012.50 1012.58 1012.51 1012.28 1011.89 1011.35 1010.68 1009.88 1008.99 1007.99 1006.91 1005.72 1004.42 1003.00 1001.45 999.79 998.05 996.27 994.50 992.82 991.30 989.99 988.96 988.23 987.80 987.65
1010.95 1010.84 1010.71 1010.56 1010.40 1010.25 1010.11 1010.02 1009.97 1009.99 1010.09 1010.27 1010.52 1010.84 1011.20 1011.56 1011.91 1012.20 1012.40 1012.48 1012.44 1012.26 1011.95 1011.50 1010.92 1010.23 1009.43 1008.52 1007.49 1006.32 1005.02 1003.57 1001.99 1000.30 998.54 996.76 995.02 993.41 991.98 990.80 989.90 989.30 988.99 988.94
1009.12 1008.96 1008.84 1008.75 1008.70 1008.70 1008.75 1008.85 1009.02 1009.25 1009.54 1009.88 1010.26 1010.66 1011.07 1011.47 1011.81 1012.09 1012.29 1012.38 1012.37 1012.24 1012.00 1011.64 1011.17 1010.59 1009.88 1009.05 1008.07 1006.93 1005.63 1004.17 1002.58 1000.89 999.14 997.39 995.73 994.21 992.90 991.85 991.09 990.63 990.44 990.49
1007.59 1007.40 1007.28 1007.25 1007.31 1007.45 1007.68 1007.97 1008.33 1008.75 1009.20 1009.67 1010.15 1010.62 1011.06 1011.46 1011.80 1012.07 1012.25 1012.36 1012.37 1012.29 1012.11 1011.84 1011.46 1010.96 1010.33 1009.55 1008.61 1007.49 1006.20 1004.75 1003.16 1001.49 999.79 998.12 996.55 995.16 994.00 993.11 992.51 992.19 992.12 992.27
Thickness
5611 5607 5604 5607 5606 5608 5608 5606 5607 5618 5619 5613 5614 5620 5629 5635 5633 5630 5628 5626 5622 5619 5616 5612 5607 5602 5598 5593 5589 5585 5581 5578 5574 5572 5570 5570 5571 5572 5573 5574 5574 5576 5578 5581
5602 5598 5604 5606 5603 5602 5600 5597 5601 5611 5611 5606 5608 5615 5627 5633 5631 5628 5624 5620 5616 5611 5607 5602 5598 5593 5588 5583 5578 5574 5570 5566 5562 5558 5556 5556 5557 5558 5558 5560 5560 5561 5563 5565
5597 5598 5600 5598 5595 5592 5593 5591 5592 5591 5595 5600 5598 5607 5627 5630 5628 5624 5620 5616 5611 5605 5598 5594 5589 5583 5578 5573 5568 5565 5560 5556 5551 5547 5545 5545 5544 5544 5544 5545 5546 5548 5549 5551
5593 5592 5590 5589 5588 5584 5582 5587 5584 5580 5571 5574 5586 5574 5613 5621 5616 5615 5611 5606 5602 5597 5592 5586 5580 5575 5569 5563 5558 5553 5549 5545 5541 5537 5534 5532 5531 5530 5531 5533 5535 5536 5537 5540
5587 5585 5581 5580 5582 5579 5577 5575 5572 5569 5562 5556 5573 5558 5590 5612 5607 5605 5602 5598 5594 5588 5583 5577 5572 5566 5561 5554 5548 5543 5539 5535 5531 5528 5524 5521 5520 5519 5520 5521 5523 5525 5526 5529
5576 5576 5574 5574 5573 5571 5568 5564 5564 5558 5550 5542 5568 5561 5581 5601 5604 5601 5596 5590 5585 5579 5574 5569 5563 5557 5550 5544 5538 5533 5529 5526 5521 5518 5515 5512 5510 5509 5510 5511 5512 5514 5516 5519
5565 5565 5564 5563 5560 5558 5555 5548 5548 5546 5541 5554 5578 5564 5576 5600 5601 5595 5587 5581 5575 5570 5565 5559 5553 5546 5541 5535 5529 5525 5520 5516 5512 5508 5505 5502 5501 5502 5502 5502 5503 5505 5507 5509
5559 5560 5557 5554 5553 5549 5545 5545 5538 5539 5549 5560 5565 5558 5580 5596 5593 5587 5580 5573 5567 5561 5555 5550 5544 5538 5532 5527 5521 5516 5512 5507 5503 5500 5497 5495 5494 5494 5494 5495 5495 5496 5498 5502
5554 5551 5547 5546 5546 5545 5540 5536 5540 5527 5522 5516 5545 5571 5584 5586 5581 5575 5569 5562 5556 5551 5546 5541 5536 5530 5524 5519 5514 5509 5504 5500 5496 5492 5490 5489 5487 5487 5487 5487 5487 5488 5491 5493
5543 5537 5534 5529 5529 5527 5528 5531 5517 5512 5511 5521 5546 5561 5563 5567 5566 5563 5556 5549 5546 5542 5537 5532 5527 5522 5516 5511 5506 5502 5498 5494 5489 5487 5484 5483 5481 5480 5480 5479 5480 5481 5482 5484
5527 5520 5516 5511 5510 5516 5510 5511 5512 5510 5513 5508 5517 5545 5567 5563 5558 5552 5547 5541 5537 5532 5527 5522 5518 5514 5508 5502 5497 5493 5489 5487 5483 5481 5478 5476 5475 5475 5475 5473 5473 5473 5474 5475
5512 5508 5506 5508 5509 5510 5508 5509 5503 5494 5496 5497 5494 5523 5558 5553 5548 5542 5537 5533 5528 5523 5518 5513 5508 5504 5498 5493 5489 5485 5481 5478 5476 5474 5471 5470 5469 5468 5466 5465 5464 5464 5465 5466
5496 5488 5491 5495 5488 5487 5487 5492 5492 5488 5485 5484 5488 5518 5545 5540 5535 5532 5526 5521 5517 5513 5509 5503 5498 5493 5489 5484 5480 5476 5473 5470 5467 5465 5462 5460 5459 5458 5457 5456 5455 5455 5455 5456
5487 5475 5484 5498 5500 5479 5472 5476 5477 5471 5465 5474 5491 5513 5528 5526 5523 5519 5515 5511 5506 5503 5498 5493 5487 5482 5478 5474 5470 5467 5464 5462 5459 5456 5454 5452 5450 5449 5448 5448 5446 5446 5446 5447
5468 5463 5470 5482 5491 5483 5475 5474 5469 5464 5471 5472 5495 5506 5519 5517 5511 5508 5505 5501 5498 5493 5488 5483 5476 5471 5467 5463 5460 5458 5455 5453 5451 5449 5446 5444 5443 5442 5440 5439 5438 5438 5437 5439
5451 5452 5459 5466 5479 5479 5476 5479 5475 5468 5469 5474 5481 5493 5510 5506 5502 5497 5493 5489 5485 5481 5477 5472 5467 5462 5457 5453 5450 5448 5446 5445 5443 5441 5439 5437 5437 5435 5433 5432 5432 5432 5431 5431
5438 5437 5440 5452 5466 5462 5462 5485 5482 5477 5478 5473 5472 5489 5497 5492 5490 5486 5483 5479 5472 5468 5465 5460 5455 5450 5446 5443 5440 5437 5436 5435 5433 5431 5430 5429 5428 5427 5426 5426 5425 5425 5425 5425
5431 5428 5429 5437 5442 5438 5479 5495 5491 5484 5483 5479 5477 5481 5483 5480 5479 5476 5473 5467 5462 5458 5454 5449 5444 5440 5437 5434 5431 5428 5427 5425 5424 5423 5421 5420 5419 5418 5419 5419 5419 5419 5419 5420
5430 5423 5424 5429 5431 5443 5475 5485 5480 5469 5469 5478 5473 5474 5473 5470 5465 5464 5465 5459 5453 5448 5443 5439 5434 5430 5427 5424 5421 5419 5417 5416 5415 5414 5413 5412 5411 5410 5411 5411 5412 5413 5414 5416
5419 5415 5415 5420 5421 5432 5468 5472 5470 5461 5449 5470 5468 5465 5461 5455 5440 5448 5455 5449 5444 5439 5434 5429 5425 5421 5417 5414 5411 5409 5407 5406 5406 5406 5405 5405 5404 5404 5404 5404 5406 5407 5409 5412
5403 5404 5406 5409 5412 5429 5460 5456 5453 5438 5446 5463 5460 5455 5449 5440 5435 5440 5441 5437 5432 5428 5424 5421 5416 5411 5408 5405 5402 5400 5398 5398 5398 5397 5397 5397 5397 5397 5398 5399 5400 5401 5405 5408
5402 5399 5399 5402 5404 5422 5446 5438 5435 5439 5449 5450 5447 5443 5439 5435 5434 5431 5428 5424 5420 5417 5414 5411 5405 5402 5399 5396 5393 5391 5390 5391 5390 5390 5390 5391 5391 5392 5393 5393 5395 5397 5399 5403
5409 5411 5410 5410 5422 5440 5435 5434 5436 5438 5435 5436 5433 5431 5428 5425 5422 5419 5416 5413 5410 5407 5403 5400 5396 5393 5391 5388 5385 5383 5383 5383 5384 5384 5384 5384 5385 5386 5387 5388 5391 5393 5395 5398
5411 5415 5410 5409 5423 5430 5428 5429 5428 5427 5425 5424 5422 5419 5416 5412 5410 5407 5404 5401 5398 5396 5393 5390 5386 5384 5382 5380 5378 5376 5376 5375 5376 5377 5377 5378 5379 5381 5383 5384 5386 5388 5391 5394
5408 5401 5398 5400 5411 5416 5418 5417 5417 5416 5415 5413 5411 5408 5404 5401 5398 5395 5392 5389 5387 5386 5382 5379 5376 5374 5373 5372 5371 5370 5369 5369 5369 5370 5371 5372 5373 5374 5377 5379 5381 5384 5387 5390
5403 5394 5390 5395 5402 5399 5403 5408 5407 5404 5402 5400 5398 5396 5393 5389 5386 5384 5380 5378 5376 5374 5372 5369 5368 5366 5365 5365 5364 5364 5363 5362 5362 5363 5365 5366 5368 5369 5371 5374 5378 5381 5384 5388